,,,PA_Meas_PMT16A,,PR_Meas_QMR101_102,,RH_Meas_QMH101,,SR_Meas_QMS101,,TA_Meas_QMH101,,GenWind,,GenWind,
date,time,status,PA,status,PR,status,RH,status,SR,status,TA,status,DirAvg,status,SpdAvg,
2009-08-25, 00:00:05,VALID,1001.17,VALID,0,VALID,77.4483,VALID,0,VALID,24.3433,VALID,150,VALID,1.57383,
2009-08-25, 00:01:05,VALID,1001.17,VALID,0,VALID,77.4559,VALID,0,VALID,24.3452,VALID,149,VALID,1.60977,
2009-08-25, 00:02:05,VALID,1001.17,VALID,0,VALID,76.6548,VALID,0,VALID,24.3647,VALID,141,VALID,1.87344,
2009-08-25, 00:03:05,VALID,1001.16,VALID,0,VALID,76.5785,VALID,0,VALID,24.4037,VALID,137,VALID,1.48125,
2009-08-25, 00:04:05,VALID,1001.12,VALID,0,VALID,76.4869,VALID,0,VALID,24.3824,VALID,147,VALID,1.99219,
2009-08-25, 00:05:05,VALID,1001.09,VALID,0,VALID,76.3725,VALID,0,VALID,24.4214,VALID,131,VALID,1.63203,
2009-08-25, 00:06:05,VALID,1001.13,VALID,0,VALID,76.2657,VALID,0,VALID,24.4428,VALID,124,VALID,1.45703,
2009-08-25, 00:07:05,VALID,1001.1,VALID,0,VALID,76.0673,VALID,0,VALID,24.4428,VALID,137,VALID,1.98438,
2009-08-25, 00:08:05,VALID,1001.12,VALID,0,VALID,76.0749,VALID,0,VALID,24.4623,VALID,139,VALID,1.40273,
2009-08-25, 00:09:05,VALID,1001.15,VALID,0,VALID,76.1283,VALID,0,VALID,24.4214,VALID,138,VALID,1.68477,
2009-08-25, 00:10:05,VALID,1001.14,VALID,0,VALID,76.2886,VALID,0,VALID,24.4019,VALID,148,VALID,1.7625,
2009-08-25, 00:11:05,VALID,1001.1,VALID,0,VALID,76.3115,VALID,0,VALID,24.3824,VALID,152,VALID,1.73633,
2009-08-25, 00:12:05,VALID,1001.13,VALID,0,VALID,76.342,VALID,0.112286,VALID,24.3629,VALID,137,VALID,1.66211,
2009-08-25, 00:13:05,VALID,1001.13,VALID,0,VALID,76.2809,VALID,0,VALID,24.3647,VALID,141,VALID,1.67148,
2009-08-25, 00:14:05,VALID,1001.12,VALID,0,VALID,75.93,VALID,0,VALID,24.3842,VALID,150,VALID,2.07461,
2009-08-25, 00:15:05,VALID,1001.08,VALID,0,VALID,75.8842,VALID,0,VALID,24.3629,VALID,151,VALID,1.95273,
2009-08-25, 00:16:05,VALID,1001.1,VALID,0,VALID,76.0063,VALID,0,VALID,24.3824,VALID,137,VALID,1.68906,
2009-08-25, 00:17:05,VALID,1001.11,VALID,0,VALID,76.3801,VALID,0,VALID,24.3629,VALID,140,VALID,1.27227,
2009-08-25, 00:18:05,VALID,1001.09,VALID,0,VALID,76.2504,VALID,0,VALID,24.3433,VALID,143,VALID,1.53398,
2009-08-25, 00:19:05,VALID,1001.09,VALID,0,VALID,76.3725,VALID,0,VALID,24.3452,VALID,132,VALID,1.59023,
2009-08-25, 00:20:05,VALID,1001.1,VALID,0,VALID,76.4488,VALID,0,VALID,24.3062,VALID,135,VALID,1.40156,
2009-08-25, 00:21:05,VALID,1001.09,VALID,0,VALID,76.258,VALID,0,VALID,24.2848,VALID,132,VALID,1.88281,
2009-08-25, 00:22:05,VALID,1001.05,VALID,0,VALID,76.2809,VALID,0,VALID,24.3257,VALID,123,VALID,1.82227,
2009-08-25, 00:23:05,VALID,1001.08,VALID,0,VALID,76.0902,VALID,0.112286,VALID,24.3043,VALID,136,VALID,3.23281,
2009-08-25, 00:24:05,VALID,1001.05,VALID,0,VALID,76.0444,VALID,0.112286,VALID,24.3238,VALID,139,VALID,2.45,
2009-08-25, 00:25:05,VALID,1001.03,VALID,0,VALID,76.3801,VALID,0.112286,VALID,24.3433,VALID,146,VALID,1.92617,
2009-08-25, 00:26:05,VALID,1001.01,VALID,0,VALID,76.4869,VALID,0,VALID,24.3043,VALID,146,VALID,1.70117,
2009-08-25, 00:27:05,VALID,1001.04,VALID,0,VALID,76.2199,VALID,0,VALID,24.3062,VALID,154,VALID,1.92695,
2009-08-25, 00:28:05,VALID,1000.98,VALID,0,VALID,75.9071,VALID,0,VALID,24.3666,VALID,136,VALID,1.75273,
2009-08-25, 00:29:05,VALID,1000.99,VALID,0,VALID,76.136,VALID,0,VALID,24.3647,VALID,138,VALID,1.43008,
2009-08-25, 00:30:05,VALID,1001,VALID,0,VALID,75.9529,VALID,0,VALID,24.3257,VALID,123,VALID,1.68086,
2009-08-25, 00:31:05,VALID,1000.97,VALID,0,VALID,75.6095,VALID,0,VALID,24.3666,VALID,125,VALID,2.83516,
2009-08-25, 00:32:05,VALID,1001,VALID,0,VALID,75.2738,VALID,0,VALID,24.4251,VALID,128,VALID,2.50195,
2009-08-25, 00:33:05,VALID,1000.98,VALID,0,VALID,75.4264,VALID,0,VALID,24.4233,VALID,138,VALID,1.8582,
2009-08-25, 00:34:05,VALID,1000.96,VALID,0,VALID,75.2586,VALID,0,VALID,24.4428,VALID,142,VALID,1.82227,
2009-08-25, 00:35:05,VALID,1000.96,VALID,0,VALID,75.2815,VALID,0,VALID,24.4428,VALID,142,VALID,1.97266,
2009-08-25, 00:36:05,VALID,1000.98,VALID,0,VALID,75.4875,VALID,0,VALID,24.4428,VALID,169,VALID,1.56602,
2009-08-25, 00:37:05,VALID,1000.93,VALID,0,VALID,75.6401,VALID,0,VALID,24.4233,VALID,158,VALID,1.51914,
2009-08-25, 00:38:05,VALID,1000.91,VALID,0,VALID,76.1512,VALID,0,VALID,24.4037,VALID,140,VALID,1.17773,
2009-08-25, 00:39:05,VALID,1000.9,VALID,0,VALID,76.2275,VALID,0,VALID,24.3452,VALID,143,VALID,1.01992,
2009-08-25, 00:40:05,VALID,1000.83,VALID,0,VALID,75.7163,VALID,0,VALID,24.347,VALID,146,VALID,1.99336,
2009-08-25, 00:41:05,VALID,1000.86,VALID,0,VALID,76.0292,VALID,0,VALID,24.347,VALID,144,VALID,1.66836,
2009-08-25, 00:42:05,VALID,1000.84,VALID,0,VALID,75.9834,VALID,0,VALID,24.2848,VALID,142,VALID,1.48984,
2009-08-25, 00:43:05,VALID,1000.81,VALID,0,VALID,75.8155,VALID,0,VALID,24.3062,VALID,140,VALID,2.28711,
2009-08-25, 00:44:05,VALID,1000.82,VALID,0,VALID,75.9071,VALID,0,VALID,24.2848,VALID,158,VALID,1.95195,
2009-08-25, 00:45:05,VALID,1000.79,VALID,0,VALID,75.8461,VALID,0,VALID,24.3238,VALID,157,VALID,2.04219,
2009-08-25, 00:46:05,VALID,1000.77,VALID,0,VALID,75.8766,VALID,0,VALID,24.3452,VALID,147,VALID,1.84414,
2009-08-25, 00:47:05,VALID,1000.73,VALID,0,VALID,76.0749,VALID,0,VALID,24.3043,VALID,160,VALID,1.4668,
2009-08-25, 00:48:05,VALID,1000.75,VALID,0,VALID,76.1055,VALID,0,VALID,24.3043,VALID,169,VALID,1.12148,
2009-08-25, 00:49:05,VALID,1000.76,VALID,0,VALID,76.0521,VALID,0,VALID,24.3257,VALID,176,VALID,1.87344,
2009-08-25, 00:50:05,VALID,1000.75,VALID,0,VALID,75.6858,VALID,0,VALID,24.3647,VALID,168,VALID,2.06914,
2009-08-25, 00:51:05,VALID,1000.77,VALID,0,VALID,75.6019,VALID,0,VALID,24.3824,VALID,164,VALID,1.48906,
2009-08-25, 00:52:05,VALID,1000.72,VALID,0,VALID,75.6172,VALID,0,VALID,24.4037,VALID,156,VALID,1.27109,
2009-08-25, 00:53:05,VALID,1000.79,VALID,0,VALID,75.6858,VALID,0,VALID,24.3842,VALID,144,VALID,1.28945,
2009-08-25, 00:54:05,VALID,1000.71,VALID,0,VALID,75.7392,VALID,0,VALID,24.3452,VALID,143,VALID,1.46797,
2009-08-25, 00:55:05,VALID,1000.73,VALID,0,VALID,75.8461,VALID,0,VALID,24.3452,VALID,147,VALID,1.21289,
2009-08-25, 00:56:05,VALID,1000.7,VALID,0,VALID,75.4646,VALID,0,VALID,24.2848,VALID,137,VALID,1.8625,
2009-08-25, 00:57:05,VALID,1000.69,VALID,0,VALID,75.7087,VALID,0,VALID,24.3062,VALID,130,VALID,1.2,
2009-08-25, 00:58:05,VALID,1000.68,VALID,0,VALID,75.6019,VALID,0,VALID,24.3062,VALID,136,VALID,1.5957,
2009-08-25, 00:59:05,VALID,1000.65,VALID,0,VALID,75.4798,VALID,0,VALID,24.3275,VALID,133,VALID,1.81367,
2009-08-25, 01:00:05,VALID,1000.61,VALID,0,VALID,75.4188,VALID,0,VALID,24.3666,VALID,131,VALID,1.61289,
2009-08-25, 01:01:05,VALID,1000.6,VALID,0,VALID,75.2357,VALID,0,VALID,24.3647,VALID,132,VALID,1.60664,
2009-08-25, 01:02:05,VALID,1000.53,VALID,0,VALID,75.2052,VALID,0,VALID,24.3861,VALID,135,VALID,1.3125,
2009-08-25, 01:03:05,VALID,1000.5,VALID,0,VALID,75.8003,VALID,0,VALID,24.3666,VALID,139,VALID,1.09922,
2009-08-25, 01:04:05,VALID,1000.47,VALID,0,VALID,75.991,VALID,0,VALID,24.2866,VALID,141,VALID,1.39922,
2009-08-25, 01:05:05,VALID,1000.46,VALID,0,VALID,76.2352,VALID,0,VALID,24.2495,VALID,145,VALID,1.69297,
2009-08-25, 01:06:05,VALID,1000.44,VALID,0,VALID,76.0292,VALID,0,VALID,24.269,VALID,164,VALID,0.982813,
2009-08-25, 01:07:05,VALID,1000.41,VALID,0,VALID,75.991,VALID,0,VALID,24.2495,VALID,148,VALID,1.25508,
2009-08-25, 01:08:05,VALID,1000.42,VALID,0,VALID,76.0749,VALID,0,VALID,24.2086,VALID,147,VALID,1.23828,
2009-08-25, 01:09:05,VALID,1000.44,VALID,0,VALID,76.0902,VALID,0,VALID,24.2281,VALID,149,VALID,1.57422,
2009-08-25, 01:10:05,VALID,1000.43,VALID,0,VALID,76.4183,VALID,0,VALID,24.2086,VALID,146,VALID,1.18203,
2009-08-25, 01:11:05,VALID,1000.45,VALID,0,VALID,76.5022,VALID,0,VALID,24.1909,VALID,136,VALID,1.14297,
2009-08-25, 01:12:05,VALID,1000.45,VALID,0,VALID,76.7769,VALID,0,VALID,24.1482,VALID,121,VALID,1.09336,
2009-08-25, 01:13:05,VALID,1000.45,VALID,0,VALID,76.9447,VALID,0,VALID,24.1092,VALID,117,VALID,1.2582,
2009-08-25, 01:14:05,VALID,1000.42,VALID,0,VALID,77.1507,VALID,0,VALID,24.0701,VALID,123,VALID,1.09648,
2009-08-25, 01:15:05,VALID,1000.41,VALID,0,VALID,77.5093,VALID,0,VALID,24.0525,VALID,127,VALID,1.23672,
2009-08-25, 01:16:05,VALID,1000.42,VALID,0,VALID,77.7611,VALID,0,VALID,23.9921,VALID,128,VALID,1.38164,
2009-08-25, 01:17:05,VALID,1000.44,VALID,0,VALID,78.1502,VALID,0,VALID,23.9744,VALID,131,VALID,1.16016,
2009-08-25, 01:18:05,VALID,1000.44,VALID,0,VALID,78.196,VALID,0,VALID,23.9159,VALID,139,VALID,1.19805,
2009-08-25, 01:19:05,VALID,1000.44,VALID,0,VALID,78.3333,VALID,0,VALID,23.8768,VALID,148,VALID,1.06523,
2009-08-25, 01:20:05,VALID,1000.45,VALID,0,VALID,78.4935,VALID,0,VALID,23.8573,VALID,142,VALID,1.43945,
2009-08-25, 01:21:05,VALID,1000.43,VALID,0,VALID,78.3867,VALID,0,VALID,23.8573,VALID,144,VALID,1.79219,
2009-08-25, 01:22:05,VALID,1000.4,VALID,0,VALID,78.1731,VALID,0,VALID,23.8963,VALID,141,VALID,1.91875,
2009-08-25, 01:23:05,VALID,1000.4,VALID,0,VALID,78.0281,VALID,0,VALID,23.8945,VALID,135,VALID,1.74297,
2009-08-25, 01:24:05,VALID,1000.4,VALID,0,VALID,78.2418,VALID,0,VALID,23.8945,VALID,132,VALID,1.56172,
2009-08-25, 01:25:05,VALID,1000.39,VALID,0,VALID,78.0968,VALID,0,VALID,23.8945,VALID,141,VALID,1.95391,
2009-08-25, 01:26:05,VALID,1000.39,VALID,0,VALID,77.99,VALID,0,VALID,23.875,VALID,126,VALID,2.03125,
2009-08-25, 01:27:05,VALID,1000.44,VALID,0,VALID,77.8755,VALID,0,VALID,23.8963,VALID,137,VALID,2.29766,
2009-08-25, 01:28:05,VALID,1000.43,VALID,0,VALID,78.0434,VALID,0,VALID,23.8945,VALID,139,VALID,1.84453,
2009-08-25, 01:29:05,VALID,1000.44,VALID,0,VALID,77.9518,VALID,0,VALID,23.8963,VALID,140,VALID,2.07188,
2009-08-25, 01:30:05,VALID,1000.42,VALID,0,VALID,77.8832,VALID,0,VALID,23.8963,VALID,133,VALID,1.8332,
2009-08-25, 01:31:05,VALID,1000.42,VALID,0,VALID,77.8221,VALID,0,VALID,23.9159,VALID,128,VALID,2.18047,
2009-08-25, 01:32:05,VALID,1000.45,VALID,0,VALID,78.0205,VALID,0,VALID,23.8945,VALID,137,VALID,1.67578,
2009-08-25, 01:33:05,VALID,1000.43,VALID,0,VALID,77.7687,VALID,0,VALID,23.8963,VALID,129,VALID,2.34414,
2009-08-25, 01:34:05,VALID,1000.42,VALID,0,VALID,77.6924,VALID,0,VALID,23.8945,VALID,131,VALID,1.84805,
2009-08-25, 01:35:05,VALID,1000.43,VALID,0,VALID,77.6619,VALID,0,VALID,23.8945,VALID,140,VALID,2.41992,
2009-08-25, 01:36:05,VALID,1000.44,VALID,0,VALID,77.4864,VALID,0,VALID,23.8945,VALID,125,VALID,2.80508,
2009-08-25, 01:37:05,VALID,1000.42,VALID,0,VALID,77.5322,VALID,0,VALID,23.914,VALID,128,VALID,2.22305,
2009-08-25, 01:38:05,VALID,1000.4,VALID,0,VALID,76.9829,VALID,0,VALID,23.914,VALID,133,VALID,2.73203,
2009-08-25, 01:39:05,VALID,1000.43,VALID,0,VALID,76.8303,VALID,0,VALID,23.9531,VALID,135,VALID,2.4082,
2009-08-25, 01:40:05,VALID,1000.44,VALID,0,VALID,76.6472,VALID,0,VALID,23.9726,VALID,153,VALID,2.16172,
2009-08-25, 01:41:05,VALID,1000.45,VALID,0,VALID,76.5251,VALID,0,VALID,24.0311,VALID,158,VALID,2.23984,
2009-08-25, 01:42:05,VALID,1000.44,VALID,0,VALID,76.5632,VALID,0.112286,VALID,24.072,VALID,157,VALID,1.59453,
2009-08-25, 01:43:05,VALID,1000.46,VALID,0,VALID,76.9066,VALID,0,VALID,24.0311,VALID,147,VALID,1.21406,
2009-08-25, 01:44:05,VALID,1000.44,VALID,0,VALID,76.8532,VALID,0,VALID,23.9726,VALID,156,VALID,1.91094,
2009-08-25, 01:45:05,VALID,1000.41,VALID,0,VALID,75.6172,VALID,0,VALID,23.9744,VALID,145,VALID,3.02773,
2009-08-25, 01:46:05,VALID,1000.41,VALID,0,VALID,76.0978,VALID,0,VALID,24.0311,VALID,143,VALID,1.68477,
2009-08-25, 01:47:05,VALID,1000.34,VALID,0,VALID,74.8695,VALID,0.112286,VALID,24.0701,VALID,135,VALID,2.05312,
2009-08-25, 01:48:05,VALID,1000.35,VALID,0,VALID,75.3959,VALID,0,VALID,24.1287,VALID,177,VALID,2.99102,
2009-08-25, 01:49:05,VALID,1000.3,VALID,0,VALID,75.3501,VALID,0,VALID,24.1891,VALID,166,VALID,2.63438,
2009-08-25, 01:50:05,VALID,1000.28,VALID,0,VALID,74.8923,VALID,0,VALID,24.1872,VALID,144,VALID,2.51445,
2009-08-25, 01:51:05,VALID,1000.18,VALID,0,VALID,72.7103,VALID,0,VALID,24.3257,VALID,125,VALID,2.58437,
2009-08-25, 01:52:05,VALID,1000.14,VALID,0,VALID,72.5424,VALID,0,VALID,24.4409,VALID,144,VALID,2.15195,
2009-08-25, 01:53:05,VALID,1000.15,VALID,0,VALID,73.0155,VALID,0,VALID,24.5013,VALID,146,VALID,2.38438,
2009-08-25, 01:54:05,VALID,1000.15,VALID,0,VALID,73.1757,VALID,0,VALID,24.4428,VALID,153,VALID,2.70039,
2009-08-25, 01:55:05,VALID,1000.1,VALID,0,VALID,73.4809,VALID,0,VALID,24.4233,VALID,153,VALID,2.56016,
2009-08-25, 01:56:05,VALID,1000.08,VALID,0,VALID,74.2515,VALID,0,VALID,24.3647,VALID,133,VALID,1.63672,
2009-08-25, 01:57:05,VALID,1000.08,VALID,0,VALID,74.3583,VALID,0,VALID,24.2476,VALID,127,VALID,2.00586,
2009-08-25, 01:58:05,VALID,1000.09,VALID,0,VALID,74.488,VALID,0,VALID,24.2104,VALID,136,VALID,2.70625,
2009-08-25, 01:59:05,VALID,1000.06,VALID,0,VALID,74.1523,VALID,0,VALID,24.1891,VALID,150,VALID,2.45625,
2009-08-25, 02:00:05,VALID,1000.07,VALID,0,VALID,74.0455,VALID,0,VALID,24.2299,VALID,153,VALID,2.22617,
2009-08-25, 02:01:05,VALID,1000.06,VALID,0,VALID,74.1904,VALID,0,VALID,24.2086,VALID,143,VALID,1.87656,
2009-08-25, 02:02:05,VALID,1000.06,VALID,0,VALID,74.7016,VALID,0,VALID,24.2104,VALID,133,VALID,1.39453,
2009-08-25, 02:03:05,VALID,1000.06,VALID,0,VALID,74.9152,VALID,0,VALID,24.1519,VALID,145,VALID,1.15391,
2009-08-25, 02:04:05,VALID,1000.07,VALID,0,VALID,74.9915,VALID,0,VALID,24.0933,VALID,162,VALID,1.47812,
2009-08-25, 02:05:05,VALID,1000.07,VALID,0,VALID,74.9534,VALID,0,VALID,24.0348,VALID,168,VALID,2.14414,
2009-08-25, 02:06:04,VALID,1000.04,VALID,0,VALID,75.1594,VALID,0,VALID,24.0348,VALID,177,VALID,2.52813,
2009-08-25, 02:07:04,VALID,1000.03,VALID,0,VALID,75.0449,VALID,0,VALID,24.0525,VALID,165,VALID,2.43438,
2009-08-25, 02:08:04,VALID,1000.02,VALID,0,VALID,74.6406,VALID,0,VALID,24.072,VALID,154,VALID,2.18047,
2009-08-25, 02:09:04,VALID,999.976,VALID,0,VALID,74.9687,VALID,0,VALID,24.072,VALID,126,VALID,1.91641,
2009-08-25, 02:10:04,VALID,999.973,VALID,0,VALID,74.9839,VALID,0,VALID,24.0329,VALID,116,VALID,2.70313,
2009-08-25, 02:11:04,VALID,999.907,VALID,0,VALID,74.5643,VALID,0,VALID,24.0134,VALID,116,VALID,2.54609,
2009-08-25, 02:12:04,VALID,999.957,VALID,0,VALID,74.4727,VALID,0,VALID,24.0543,VALID,128,VALID,2.52578,
2009-08-25, 02:13:04,VALID,999.953,VALID,0,VALID,74.0226,VALID,0,VALID,24.0915,VALID,129,VALID,3.06953,
2009-08-25, 02:14:04,VALID,999.933,VALID,0,VALID,73.9768,VALID,0,VALID,24.1696,VALID,142,VALID,2.39961,
2009-08-25, 02:15:04,VALID,999.945,VALID,0,VALID,74.1218,VALID,0,VALID,24.1909,VALID,152,VALID,2.56211,
2009-08-25, 02:16:04,VALID,999.887,VALID,0,VALID,74.4422,VALID,0,VALID,24.1519,VALID,165,VALID,1.83594,
2009-08-25, 02:17:04,VALID,999.856,VALID,0,VALID,74.7626,VALID,0,VALID,24.072,VALID,153,VALID,1.62188,
2009-08-25, 02:18:04,VALID,999.833,VALID,0,VALID,74.5566,VALID,0,VALID,24.0543,VALID,149,VALID,2.15039,
2009-08-25, 02:19:04,VALID,999.82,VALID,0,VALID,74.7016,VALID,0,VALID,23.9939,VALID,139,VALID,1.84258,
2009-08-25, 02:20:04,VALID,999.819,VALID,0,VALID,74.8466,VALID,0,VALID,24.0153,VALID,148,VALID,1.86055,
2009-08-25, 02:21:04,VALID,999.785,VALID,0,VALID,74.4575,VALID,0,VALID,24.0153,VALID,137,VALID,2.47187,
2009-08-25, 02:22:04,VALID,999.816,VALID,0,VALID,74.8389,VALID,0,VALID,24.0525,VALID,139,VALID,1.75078,
2009-08-25, 02:23:04,VALID,999.806,VALID,0,VALID,74.6024,VALID,0,VALID,24.0543,VALID,148,VALID,2.32383,
2009-08-25, 02:24:04,VALID,999.812,VALID,0,VALID,74.8618,VALID,0,VALID,24.0134,VALID,138,VALID,2.18203,
2009-08-25, 02:25:04,VALID,999.765,VALID,0,VALID,74.6177,VALID,0,VALID,24.0134,VALID,134,VALID,2.94844,
2009-08-25, 02:26:04,VALID,999.746,VALID,0,VALID,74.3735,VALID,0,VALID,24.0738,VALID,134,VALID,2.42617,
2009-08-25, 02:27:04,VALID,999.739,VALID,0,VALID,74.5566,VALID,0,VALID,24.072,VALID,137,VALID,1.7043,
2009-08-25, 02:28:04,VALID,999.756,VALID,0,VALID,74.5872,VALID,0,VALID,24.072,VALID,152,VALID,1.76133,
2009-08-25, 02:29:04,VALID,999.733,VALID,0,VALID,74.8923,VALID,0,VALID,24.072,VALID,155,VALID,1.51602,
2009-08-25, 02:30:04,VALID,999.705,VALID,0,VALID,74.6253,VALID,0,VALID,24.0543,VALID,158,VALID,1.81797,
2009-08-25, 02:31:04,VALID,999.72,VALID,0,VALID,74.6863,VALID,0,VALID,24.0738,VALID,156,VALID,1.65156,
2009-08-25, 02:32:04,VALID,999.733,VALID,0,VALID,74.8542,VALID,0,VALID,24.0543,VALID,167,VALID,1.87383,
2009-08-25, 02:33:04,VALID,999.702,VALID,0,VALID,74.8466,VALID,0,VALID,24.0738,VALID,162,VALID,1.5375,
2009-08-25, 02:34:04,VALID,999.721,VALID,0,VALID,75.2433,VALID,0,VALID,24.0348,VALID,152,VALID,1.22422,
2009-08-25, 02:35:04,VALID,999.729,VALID,0,VALID,75.4417,VALID,0,VALID,23.9549,VALID,161,VALID,2.24688,
2009-08-25, 02:36:04,VALID,999.714,VALID,0,VALID,75.5866,VALID,0,VALID,23.9354,VALID,153,VALID,1.56055,
2009-08-25, 02:37:04,VALID,999.707,VALID,0,VALID,75.8232,VALID,0,VALID,23.9177,VALID,159,VALID,1.85859,
2009-08-25, 02:38:04,VALID,999.705,VALID,0,VALID,75.6172,VALID,0,VALID,23.9177,VALID,166,VALID,1.73555,
2009-08-25, 02:39:04,VALID,999.663,VALID,0,VALID,75.4569,VALID,0,VALID,23.9177,VALID,150,VALID,1.99609,
2009-08-25, 02:40:04,VALID,999.713,VALID,0,VALID,75.1594,VALID,0,VALID,23.9354,VALID,152,VALID,2.06797,
2009-08-25, 02:41:04,VALID,999.72,VALID,0,VALID,74.755,VALID,0,VALID,24.0134,VALID,156,VALID,2.22266,
2009-08-25, 02:42:04,VALID,999.705,VALID,0,VALID,74.9534,VALID,0,VALID,24.072,VALID,159,VALID,1.95352,
2009-08-25, 02:43:04,VALID,999.708,VALID,0,VALID,74.8466,VALID,0,VALID,24.072,VALID,172,VALID,2.03672,
2009-08-25, 02:44:04,VALID,999.694,VALID,0,VALID,74.4346,VALID,0,VALID,24.111,VALID,170,VALID,2.47422,
2009-08-25, 02:45:04,VALID,999.681,VALID,0,VALID,74.3659,VALID,0,VALID,24.15,VALID,158,VALID,1.88555,
2009-08-25, 02:46:04,VALID,999.644,VALID,0,VALID,74.137,VALID,0,VALID,24.15,VALID,138,VALID,2.49727,
2009-08-25, 02:47:04,VALID,999.636,VALID,0,VALID,74.4269,VALID,0,VALID,24.15,VALID,144,VALID,1.90391,
2009-08-25, 02:48:04,VALID,999.628,VALID,0,VALID,74.5109,VALID,0,VALID,24.15,VALID,154,VALID,2.4918,
2009-08-25, 02:49:04,VALID,999.602,VALID,0,VALID,74.7321,VALID,0,VALID,24.111,VALID,154,VALID,1.77188,
2009-08-25, 02:50:04,VALID,999.626,VALID,0,VALID,74.8923,VALID,0,VALID,24.1324,VALID,157,VALID,1.73789,
2009-08-25, 02:51:04,VALID,999.608,VALID,0,VALID,74.8771,VALID,0,VALID,24.0933,VALID,168,VALID,2.11719,
2009-08-25, 02:52:04,VALID,999.583,VALID,0,VALID,74.9458,VALID,0,VALID,24.0933,VALID,163,VALID,1.26641,
2009-08-25, 02:53:04,VALID,999.558,VALID,0,VALID,74.9381,VALID,0,VALID,24.072,VALID,149,VALID,1.84609,
2009-08-25, 02:54:04,VALID,999.539,VALID,0,VALID,75.2433,VALID,0,VALID,24.0525,VALID,151,VALID,1.33359,
2009-08-25, 02:55:04,VALID,999.548,VALID,0,VALID,75.4875,VALID,0,VALID,24.0134,VALID,152,VALID,1.45352,
2009-08-25, 02:56:04,VALID,999.586,VALID,0,VALID,75.6248,VALID,0,VALID,24.0134,VALID,153,VALID,1.74961,
2009-08-25, 02:57:04,VALID,999.616,VALID,0,VALID,75.9223,VALID,0,VALID,23.9744,VALID,155,VALID,1.86328,
2009-08-25, 02:58:04,VALID,999.619,VALID,0,VALID,76.0063,VALID,0,VALID,23.9336,VALID,167,VALID,1.51445,
2009-08-25, 02:59:04,VALID,999.646,VALID,0,VALID,75.8613,VALID,0,VALID,23.9354,VALID,163,VALID,2.43711,
2009-08-25, 03:00:04,VALID,999.666,VALID,0,VALID,75.7087,VALID,0,VALID,23.9531,VALID,152,VALID,2.14492,
2009-08-25, 03:01:04,VALID,999.684,VALID,0,VALID,75.724,VALID,0,VALID,23.9939,VALID,162,VALID,1.50117,
2009-08-25, 03:02:04,VALID,999.69,VALID,0,VALID,75.4035,VALID,0,VALID,24.0134,VALID,155,VALID,2.07695,
2009-08-25, 03:03:04,VALID,999.71,VALID,0,VALID,75.167,VALID,0,VALID,24.0525,VALID,159,VALID,2.4875,
2009-08-25, 03:04:04,VALID,999.733,VALID,0,VALID,74.8008,VALID,0,VALID,24.1305,VALID,147,VALID,2.5043,
2009-08-25, 03:05:04,VALID,999.763,VALID,0,VALID,75.0526,VALID,0,VALID,24.15,VALID,151,VALID,2.09258,
2009-08-25, 03:06:04,VALID,999.779,VALID,0,VALID,75.3806,VALID,0,VALID,24.1305,VALID,136,VALID,1.62148,
2009-08-25, 03:07:04,VALID,999.784,VALID,0,VALID,75.6401,VALID,0,VALID,24.0525,VALID,135,VALID,2.31055,
2009-08-25, 03:08:04,VALID,999.831,VALID,0,VALID,76.1436,VALID,0,VALID,24.0348,VALID,145,VALID,1.55078,
2009-08-25, 03:09:04,VALID,999.835,VALID,0,VALID,76.258,VALID,0,VALID,23.9744,VALID,128,VALID,1.72578,
2009-08-25, 03:10:04,VALID,999.86,VALID,0,VALID,76.5861,VALID,0,VALID,23.9549,VALID,132,VALID,1.67383,
2009-08-25, 03:11:04,VALID,999.875,VALID,0,VALID,76.6624,VALID,0,VALID,23.9177,VALID,142,VALID,1.60586,
2009-08-25, 03:12:04,VALID,999.874,VALID,0,VALID,76.7921,VALID,0,VALID,23.8963,VALID,140,VALID,1.40586,
2009-08-25, 03:13:04,VALID,999.9,VALID,0,VALID,76.8226,VALID,0,VALID,23.8982,VALID,144,VALID,1.46094,
2009-08-25, 03:14:04,VALID,999.869,VALID,0,VALID,76.9218,VALID,0,VALID,23.8768,VALID,129,VALID,1.18945,
2009-08-25, 03:15:04,VALID,999.915,VALID,0,VALID,77.1126,VALID,0,VALID,23.8573,VALID,122,VALID,1.27383,
2009-08-25, 03:16:04,VALID,999.935,VALID,0,VALID,77.3872,VALID,0,VALID,23.8183,VALID,144,VALID,1.45352,
2009-08-25, 03:17:04,VALID,999.965,VALID,0,VALID,77.639,VALID,0,VALID,23.8201,VALID,151,VALID,1.81367,
2009-08-25, 03:18:04,VALID,999.979,VALID,0,VALID,77.5932,VALID,0,VALID,23.8006,VALID,132,VALID,1.275,
2009-08-25, 03:19:04,VALID,999.956,VALID,0,VALID,77.3643,VALID,0,VALID,23.7988,VALID,122,VALID,1.4582,
2009-08-25, 03:20:04,VALID,999.97,VALID,0,VALID,77.3949,VALID,0,VALID,23.8396,VALID,120,VALID,1.75937,
2009-08-25, 03:21:04,VALID,999.955,VALID,0,VALID,77.4483,VALID,0,VALID,23.8183,VALID,122,VALID,1.13711,
2009-08-25, 03:22:04,VALID,999.966,VALID,0,VALID,77.5932,VALID,0,VALID,23.8183,VALID,150,VALID,1.31406,
2009-08-25, 03:23:04,VALID,999.966,VALID,0,VALID,77.7916,VALID,0,VALID,23.7793,VALID,152,VALID,1.1582,
2009-08-25, 03:24:04,VALID,999.98,VALID,0,VALID,78.0434,VALID,0,VALID,23.7793,VALID,136,VALID,1.13711,
2009-08-25, 03:25:04,VALID,999.957,VALID,0,VALID,78.2341,VALID,0,VALID,23.7207,VALID,140,VALID,1.39375,
2009-08-25, 03:26:04,VALID,999.943,VALID,0,VALID,78.3257,VALID,0,VALID,23.7012,VALID,136,VALID,1.20156,
2009-08-25, 03:27:04,VALID,999.993,VALID,0,VALID,78.3867,VALID,0,VALID,23.7012,VALID,152,VALID,1.55234,
2009-08-25, 03:28:04,VALID,999.997,VALID,0,VALID,78.4325,VALID,0,VALID,23.7012,VALID,146,VALID,1.21289,
2009-08-25, 03:29:04,VALID,1000.05,VALID,0,VALID,78.3257,VALID,0,VALID,23.6817,VALID,143,VALID,0.942969,
2009-08-25, 03:30:04,VALID,1000.04,VALID,0,VALID,78.6156,VALID,0,VALID,23.6817,VALID,140,VALID,1.02383,
2009-08-25, 03:31:04,VALID,1000.06,VALID,0,VALID,78.5927,VALID,0,VALID,23.6622,VALID,153,VALID,1.50078,
2009-08-25, 03:32:04,VALID,1000.07,VALID,0,VALID,78.5393,VALID,0,VALID,23.6622,VALID,151,VALID,1.175,
2009-08-25, 03:33:04,VALID,1000.08,VALID,0,VALID,78.7224,VALID,0,VALID,23.6622,VALID,139,VALID,0.821094,
2009-08-25, 03:34:04,VALID,1000.1,VALID,0,VALID,78.6614,VALID,0,VALID,23.6427,VALID,153,VALID,1.05586,
2009-08-25, 03:35:04,VALID,1000.14,VALID,0,VALID,78.608,VALID,0,VALID,23.6427,VALID,155,VALID,0.964063,
2009-08-25, 03:36:04,VALID,1000.13,VALID,0,VALID,78.6156,VALID,0,VALID,23.6427,VALID,167,VALID,0.940234,
2009-08-25, 03:37:04,VALID,1000.13,VALID,0,VALID,78.608,VALID,0,VALID,23.6622,VALID,145,VALID,0.95625,
2009-08-25, 03:38:04,VALID,1000.15,VALID,0,VALID,78.5851,VALID,0,VALID,23.6817,VALID,137,VALID,1.05469,
2009-08-25, 03:39:04,VALID,1000.16,VALID,0,VALID,78.6385,VALID,0,VALID,23.6622,VALID,141,VALID,0.932031,
2009-08-25, 03:40:04,VALID,1000.19,VALID,0,VALID,78.8521,VALID,0,VALID,23.6427,VALID,155,VALID,1.10469,
2009-08-25, 03:41:04,VALID,1000.21,VALID,0,VALID,78.9437,VALID,0,VALID,23.6445,VALID,145,VALID,1.15234,
2009-08-25, 03:42:04,VALID,1000.2,VALID,0,VALID,79.0581,VALID,0,VALID,23.6232,VALID,135,VALID,1.29922,
2009-08-25, 03:43:04,VALID,1000.2,VALID,0,VALID,79.1726,VALID,0,VALID,23.5841,VALID,143,VALID,1.30547,
2009-08-25, 03:44:04,VALID,1000.17,VALID,0,VALID,79.3862,VALID,0,VALID,23.5859,VALID,135,VALID,0.908203,
2009-08-25, 03:45:04,VALID,1000.19,VALID,0,VALID,79.3023,VALID,0,VALID,23.5451,VALID,153,VALID,0.979297,
2009-08-25, 03:46:04,VALID,1000.16,VALID,0,VALID,79.1878,VALID,0,VALID,23.5859,VALID,117,VALID,0.7375,